Location: Calvera
(42.3882°N, 0.6137°E)
Time: 14:07:17
(UTC+00:00)

ARGOS Delta rocket - Pass Details

Date: 28 October 2020
Orbit: 636 x 837 km, 96.5° (Epoch: 24 November)

Event Time Altitude Azimuth Distance (km) Brightness Sun altitude
Rises 05:03:37 0° 9° (N) 3,346 7.4 -15.8°
Reaches altitude 10° 05:05:57 10° 8° (N) 2,428 6.6 -15.4°
Maximum altitude 05:11:23 79° 283° (WNW) 855 4.1 -14.4°
Drops below altitude 10° 05:16:51 10° 197° (SSW) 2,441 6.5 -13.4°
Sets 05:19:12 0° 196° (SSW) 3,365 7.2 -13.0°
